Time,TemperatureF,DewpointF,PressureIn,WindDirection,WindDirectionDegrees,WindSpeedMPH,WindSpeedGustMPH,Humidity,HourlyPrecipIn,Conditions,Clouds,dailyrainin,SoftwareType,DateUTC
2013-07-30 00:00:00,69.6,69.0,30.11,WSW,248,0.0,0.0,96,0.00,,,0.00,weatherlink.com 1.10,2013-07-30 04:00:00,
2013-07-30 00:15:00,69.3,68.0,30.11,WSW,248,0.0,0.0,96,0.00,,,0.00,weatherlink.com 1.10,2013-07-30 04:15:00,
2013-07-30 00:30:00,69.1,68.0,30.11,WSW,248,0.0,0.0,96,0.00,,,0.00,weatherlink.com 1.10,2013-07-30 04:30:00,
2013-07-30 00:45:00,68.8,68.0,30.11,WSW,248,0.0,0.0,96,0.00,,,0.00,weatherlink.com 1.10,2013-07-30 04:45:00,
2013-07-30 01:00:00,68.6,68.0,30.11,WSW,248,0.0,0.0,97,0.00,,,0.00,weatherlink.com 1.10,2013-07-30 05:00:00,
2013-07-30 01:15:00,68.6,68.0,30.11,WSW,248,0.0,0.0,97,0.00,,,0.00,weatherlink.com 1.10,2013-07-30 05:15:00,
2013-07-30 01:30:00,68.8,68.0,30.11,WSW,248,0.0,0.0,98,0.00,,,0.00,weatherlink.com 1.10,2013-07-30 05:30:00,
2013-07-30 01:45:00,69.2,69.0,30.11,WSW,248,0.0,0.0,98,0.00,,,0.00,weatherlink.com 1.10,2013-07-30 05:45:00,
2013-07-30 02:00:00,69.4,69.0,30.11,WSW,248,0.0,0.0,98,0.00,,,0.00,weatherlink.com 1.10,2013-07-30 06:00:00,
2013-07-30 02:15:00,69.1,69.0,30.11,WSW,248,0.0,0.0,98,0.00,,,0.00,weatherlink.com 1.10,2013-07-30 06:15:00,
2013-07-30 02:30:00,68.6,68.0,30.10,WSW,248,0.0,0.0,97,0.00,,,0.00,weatherlink.com 1.10,2013-07-30 06:30:00,
2013-07-30 02:45:00,68.3,68.0,30.11,WSW,248,0.0,0.0,97,0.00,,,0.00,weatherlink.com 1.10,2013-07-30 06:45:00,
2013-07-30 03:00:00,68.2,68.0,30.11,WSW,248,0.0,0.0,98,0.00,,,0.00,weatherlink.com 1.10,2013-07-30 07:00:00,
2013-07-30 03:15:00,68.4,68.0,30.10,WSW,248,0.0,0.0,98,0.00,,,0.00,weatherlink.com 1.10,2013-07-30 07:15:00,
2013-07-30 03:30:00,68.7,68.0,30.11,WSW,248,0.0,0.0,99,0.00,,,0.00,weatherlink.com 1.10,2013-07-30 07:30:00,
2013-07-30 03:45:00,68.8,69.0,30.10,WSW,248,0.0,0.0,99,0.00,,,0.00,weatherlink.com 1.10,2013-07-30 07:45:00,
2013-07-30 04:00:00,69.5,69.0,30.11,WSW,238,0.0,2.0,99,0.00,,,0.00,weatherlink.com 1.10,2013-07-30 08:00:00,
2013-07-30 04:15:00,70.3,70.0,30.11,WSW,238,0.0,2.0,99,0.00,,,0.00,weatherlink.com 1.10,2013-07-30 08:15:00,
2013-07-30 04:30:00,70.7,70.0,30.11,WSW,238,0.0,0.0,99,0.00,,,0.00,weatherlink.com 1.10,2013-07-30 08:30:00,
2013-07-30 04:45:00,70.8,71.0,30.11,WSW,238,0.0,0.0,99,0.00,,,0.00,weatherlink.com 1.10,2013-07-30 08:45:00,
2013-07-30 05:00:00,70.4,70.0,30.12,WSW,238,0.0,0.0,99,0.00,,,0.00,weatherlink.com 1.10,2013-07-30 09:00:00,
2013-07-30 05:16:00,70.0,69.0,30.12,WSW,238,0.0,1.0,98,0.00,,,0.00,weatherlink.com 1.10,2013-07-30 09:16:00,
2013-07-30 05:31:00,69.6,69.0,30.12,WSW,238,0.0,0.0,98,0.00,,,0.00,weatherlink.com 1.10,2013-07-30 09:31:00,
2013-07-30 05:46:00,69.2,69.0,30.12,WSW,238,0.0,0.0,98,0.00,,,0.00,weatherlink.com 1.10,2013-07-30 09:46:00,
2013-07-30 06:01:00,68.9,68.0,30.13,WSW,238,0.0,0.0,98,0.00,,,0.00,weatherlink.com 1.10,2013-07-30 10:01:00,
2013-07-30 06:16:00,68.7,68.0,30.13,WSW,238,0.0,0.0,98,0.00,,,0.00,weatherlink.com 1.10,2013-07-30 10:16:00,
2013-07-30 06:31:00,68.5,68.0,30.14,WSW,238,0.0,0.0,98,0.00,,,0.00,weatherlink.com 1.10,2013-07-30 10:31:00,
2013-07-30 06:46:00,68.3,68.0,30.15,WSW,238,0.0,0.0,98,0.00,,,0.00,weatherlink.com 1.10,2013-07-30 10:46:00,
2013-07-30 07:01:00,68.1,68.0,30.15,WSW,238,0.0,0.0,99,0.00,,,0.00,weatherlink.com 1.10,2013-07-30 11:01:00,
2013-07-30 07:16:00,68.3,68.0,30.16,WSW,239,0.0,2.0,99,0.00,,,0.00,weatherlink.com 1.10,2013-07-30 11:16:00,
2013-07-30 07:31:00,68.5,68.0,30.16,WSW,239,0.0,1.0,99,0.00,,,0.00,weatherlink.com 1.10,2013-07-30 11:31:00,
2013-07-30 07:46:00,68.6,68.0,30.16,WSW,239,0.0,1.0,99,0.00,,,0.00,weatherlink.com 1.10,2013-07-30 11:46:00,
2013-07-30 08:01:00,68.9,69.0,30.16,WSW,239,0.0,1.0,99,0.00,,,0.00,weatherlink.com 1.10,2013-07-30 12:01:00,
2013-07-30 08:16:00,69.3,69.0,30.17,WSW,239,0.0,1.0,99,0.00,,,0.00,weatherlink.com 1.10,2013-07-30 12:16:00,
2013-07-30 08:31:00,69.6,69.0,30.16,WNW,297,0.0,2.0,98,0.00,,,0.00,weatherlink.com 1.10,2013-07-30 12:31:00,
2013-07-30 08:46:00,69.7,69.0,30.17,NW,317,1.0,2.0,97,0.00,,,0.00,weatherlink.com 1.10,2013-07-30 12:46:00,
2013-07-30 09:01:00,70.3,69.0,30.17,NE,53,0.0,1.0,95,0.00,,,0.00,weatherlink.com 1.10,2013-07-30 13:01:00,
2013-07-30 09:16:00,70.7,68.0,30.17,NE,53,1.0,2.0,90,0.00,,,0.00,weatherlink.com 1.10,2013-07-30 13:16:00,
2013-07-30 09:46:00,72.7,69.0,30.17,NNW,336,0.0,2.0,87,0.00,,,0.00,weatherlink.com 1.10,2013-07-30 13:46:00,
2013-07-30 10:01:00,73.5,68.0,30.17,North,355,0.0,4.0,82,0.00,,,0.00,weatherlink.com 1.10,2013-07-30 14:01:00,
2013-07-30 10:16:00,74.0,68.0,30.17,ENE,62,0.0,3.0,81,0.00,,,0.00,weatherlink.com 1.10,2013-07-30 14:16:00,
2013-07-30 10:31:00,74.6,68.0,30.17,ENE,66,1.0,1.0,79,0.00,,,0.00,weatherlink.com 1.10,2013-07-30 14:31:00,
2013-07-30 10:46:00,75.3,67.0,30.18,NW,311,0.0,2.0,75,0.00,,,0.00,weatherlink.com 1.10,2013-07-30 14:46:00,
2013-07-30 11:16:00,76.8,68.0,30.18,ENE,73,0.0,2.0,74,0.00,,,0.00,weatherlink.com 1.10,2013-07-30 15:16:00,
2013-07-30 11:31:00,77.1,69.0,30.18,East,79,0.0,1.0,76,0.00,,,0.00,weatherlink.com 1.10,2013-07-30 15:31:00,
2013-07-30 11:46:00,77.8,69.0,30.17,ENE,76,0.0,2.0,73,0.00,,,0.00,weatherlink.com 1.10,2013-07-30 15:46:00,
2013-07-30 12:01:00,78.2,68.0,30.17,ESE,122,0.0,2.0,70,0.00,,,0.00,weatherlink.com 1.10,2013-07-30 16:01:00,
2013-07-30 12:16:00,78.8,68.0,30.17,East,82,1.0,3.0,69,0.00,,,0.00,weatherlink.com 1.10,2013-07-30 16:16:00,
2013-07-30 12:31:00,80.4,68.0,30.16,NE,34,1.0,2.0,67,0.00,,,0.00,weatherlink.com 1.10,2013-07-30 16:31:00,
2013-07-30 12:47:00,82.1,70.0,30.16,East,80,1.0,3.0,67,0.00,,,0.00,weatherlink.com 1.10,2013-07-30 16:47:00,
2013-07-30 13:02:00,83.5,72.0,30.15,East,81,0.0,1.0,69,0.00,,,0.00,weatherlink.com 1.10,2013-07-30 17:02:00,
2013-07-30 13:17:00,84.4,72.0,30.15,ENE,69,0.0,3.0,66,0.00,,,0.00,weatherlink.com 1.10,2013-07-30 17:17:00,
2013-07-30 13:32:00,85.3,71.0,30.15,ESE,111,1.0,2.0,63,0.00,,,0.00,weatherlink.com 1.10,2013-07-30 17:32:00,
2013-07-30 13:47:00,85.4,71.0,30.15,ENE,71,0.0,2.0,63,0.00,,,0.00,weatherlink.com 1.10,2013-07-30 17:47:00,
2013-07-30 14:02:00,85.6,70.0,30.14,ENE,57,1.0,3.0,60,0.00,,,0.00,weatherlink.com 1.10,2013-07-30 18:02:00,
2013-07-30 14:17:00,86.0,71.0,30.13,ENE,72,1.0,3.0,61,0.00,,,0.00,weatherlink.com 1.10,2013-07-30 18:17:00,
2013-07-30 14:32:00,85.5,69.0,30.13,SW,219,0.0,2.0,58,0.00,,,0.00,weatherlink.com 1.10,2013-07-30 18:32:00,
2013-07-30 14:47:00,85.5,72.0,30.13,ESE,103,0.0,2.0,65,0.00,,,0.00,weatherlink.com 1.10,2013-07-30 18:47:00,
2013-07-30 15:17:00,86.8,71.0,30.12,ESE,111,1.0,1.0,60,0.00,,,0.00,weatherlink.com 1.10,2013-07-30 19:17:00,
2013-07-30 15:32:00,86.3,71.0,30.12,East,86,0.0,2.0,61,0.00,,,0.00,weatherlink.com 1.10,2013-07-30 19:32:00,
2013-07-30 15:47:00,86.8,72.0,30.12,NE,53,0.0,2.0,62,0.00,,,0.00,weatherlink.com 1.10,2013-07-30 19:47:00,
2013-07-30 16:02:00,85.5,70.0,30.12,SW,226,1.0,2.0,60,0.00,,,0.00,weatherlink.com 1.10,2013-07-30 20:02:00,
2013-07-30 16:17:00,86.0,73.0,30.12,ESE,111,0.0,1.0,66,0.00,,,0.00,weatherlink.com 1.10,2013-07-30 20:17:00,
2013-07-30 16:32:00,86.3,72.0,30.11,NE,52,0.0,2.0,63,0.00,,,0.00,weatherlink.com 1.10,2013-07-30 20:32:00,
2013-07-30 16:47:00,86.0,74.0,30.11,NE,52,0.0,1.0,68,0.00,,,0.00,weatherlink.com 1.10,2013-07-30 20:47:00,
2013-07-30 17:02:00,85.1,74.0,30.11,NE,52,0.0,1.0,69,0.00,,,0.00,weatherlink.com 1.10,2013-07-30 21:02:00,
2013-07-30 17:17:00,85.2,74.0,30.11,NE,52,0.0,1.0,69,0.00,,,0.00,weatherlink.com 1.10,2013-07-30 21:17:00,
2013-07-30 17:32:00,85.7,73.0,30.11,NE,49,0.0,2.0,66,0.00,,,0.00,weatherlink.com 1.10,2013-07-30 21:32:00,
2013-07-30 17:47:00,86.7,73.0,30.11,NE,49,0.0,1.0,63,0.00,,,0.00,weatherlink.com 1.10,2013-07-30 21:47:00,
2013-07-30 18:02:00,85.2,74.0,30.11,NE,49,0.0,1.0,68,0.00,,,0.00,weatherlink.com 1.10,2013-07-30 22:02:00,
2013-07-30 18:17:00,84.6,75.0,30.11,NE,49,0.0,0.0,72,0.00,,,0.00,weatherlink.com 1.10,2013-07-30 22:17:00,
2013-07-30 18:32:00,84.5,75.0,30.11,NE,49,0.0,0.0,74,0.00,,,0.00,weatherlink.com 1.10,2013-07-30 22:32:00,
2013-07-30 18:47:00,84.1,75.0,30.10,NE,49,0.0,1.0,73,0.00,,,0.00,weatherlink.com 1.10,2013-07-30 22:47:00,
2013-07-30 19:02:00,82.8,74.0,30.10,NE,49,0.0,0.0,75,0.00,,,0.00,weatherlink.com 1.10,2013-07-30 23:02:00,
2013-07-30 19:17:00,81.7,74.0,30.10,NE,49,0.0,0.0,78,0.00,,,0.00,weatherlink.com 1.10,2013-07-30 23:17:00,
2013-07-30 19:32:00,81.0,74.0,30.09,NE,49,0.0,0.0,80,0.00,,,0.00,weatherlink.com 1.10,2013-07-30 23:32:00,
2013-07-30 19:47:00,80.0,74.0,30.09,NE,49,0.0,0.0,82,0.00,,,0.00,weatherlink.com 1.10,2013-07-30 23:47:00,
2013-07-30 20:02:00,79.2,74.0,30.10,NE,49,0.0,0.0,83,0.00,,,0.00,weatherlink.com 1.10,2013-07-31 00:02:00,
2013-07-30 20:17:00,78.2,73.0,30.09,NE,49,0.0,0.0,83,0.00,,,0.00,weatherlink.com 1.10,2013-07-31 00:17:00,
2013-07-30 20:32:00,77.2,72.0,30.10,NE,49,0.0,0.0,84,0.00,,,0.00,weatherlink.com 1.10,2013-07-31 00:32:00,
2013-07-30 20:47:00,76.0,72.0,30.10,NE,49,0.0,0.0,87,0.00,,,0.00,weatherlink.com 1.10,2013-07-31 00:47:00,
2013-07-30 21:02:00,75.2,72.0,30.10,NE,49,0.0,0.0,89,0.00,,,0.00,weatherlink.com 1.10,2013-07-31 01:02:00,
2013-07-30 21:17:00,74.4,71.0,30.11,NE,49,0.0,0.0,90,0.00,,,0.00,weatherlink.com 1.10,2013-07-31 01:17:00,
2013-07-30 21:32:00,73.9,71.0,30.11,NE,48,0.0,0.0,91,0.00,,,0.00,weatherlink.com 1.10,2013-07-31 01:32:00,
2013-07-30 21:47:00,73.6,71.0,30.11,NE,48,0.0,0.0,92,0.00,,,0.00,weatherlink.com 1.10,2013-07-31 01:47:00,
2013-07-30 22:02:00,73.2,71.0,30.11,NE,48,0.0,0.0,92,0.00,,,0.00,weatherlink.com 1.10,2013-07-31 02:02:00,
2013-07-30 22:17:00,73.0,71.0,30.12,NE,48,0.0,0.0,93,0.00,,,0.00,weatherlink.com 1.10,2013-07-31 02:17:00,
2013-07-30 22:32:00,72.8,71.0,30.12,NE,48,0.0,0.0,93,0.00,,,0.00,weatherlink.com 1.10,2013-07-31 02:32:00,
2013-07-30 22:47:00,72.6,71.0,30.12,NE,48,0.0,0.0,94,0.00,,,0.00,weatherlink.com 1.10,2013-07-31 02:47:00,
2013-07-30 23:02:00,72.4,71.0,30.12,NE,48,0.0,0.0,94,0.00,,,0.00,weatherlink.com 1.10,2013-07-31 03:02:00,
2013-07-30 23:17:00,72.3,71.0,30.12,NE,48,0.0,0.0,94,0.00,,,0.00,weatherlink.com 1.10,2013-07-31 03:17:00,
2013-07-30 23:32:00,72.1,71.0,30.12,NE,48,0.0,0.0,95,0.00,,,0.00,weatherlink.com 1.10,2013-07-31 03:32:00,
2013-07-30 23:47:00,71.8,70.0,30.12,NE,48,0.0,0.0,95,0.00,,,0.00,weatherlink.com 1.10,2013-07-31 03:47:00,